The Dalles, WA

12:05 PM PDT on August 20, 2019 (GMT -0700)
Columbia Gorge Regional-The Dalles

Weather History for KDLS - June, 2019

Change the Weather History Date:

Saturday, June 8, 2019

  Actual Average Record
Temperature  
Mean Temperature 60 °F -  
Max Temperature 70 °F 77 °F 100 °F (2015)
Min Temperature 50 °F 54 °F 42 °F (1959)
Degree Days  
Heating Degree Days 6    
Growing Degree Days 10 (Base 50)    
Moisture  
Dew Point 42 °F    
Average Humidity 51    
Maximum Humidity 68    
Minimum Humidity 36    
Precipitation  
Precipitation 0.00 in - - ()
Sea Level Pressure  
Sea Level Pressure 30.31 in    
Wind  
Wind Speed 11 mph (WNW)    
Max Wind Speed 21 mph    
Max Gust Speed 30 mph    
Visibility 10 miles    
Events      
Averages and records for this station are not official NWS values.
T = Trace of Precipitation, MM = Missing Value Source: NWS Daily Summary

Daily Weather History Graph

Daily Weather History Graph

Search for Another Location

Airport or City:

Astronomy

Jun. 08, 2019 Rise Set
Actual Time 5:15 AM PDT 8:51 PM PDT
Civil Twilight 4:38 AM PDT 9:29 PM PDT
Nautical Twilight 3:48 AM PDT 10:19 PM PDT
Astronomical Twilight 2:41 AM PDT 11:26 PM PDT
Moon 10:57 AM PDT (6/8) 12:50 AM PDT (6/8)
Length of Visible Light 16h 51m
Length of Day
15h 35m
Waxing Crescent, 34% of the Moon is Illuminated
Jun 8
Waxing Crescent
Jun 9
First Quarter
Jun 17
Full
Jun 25
Last Quarter
Jul 2
New

Hourly Weather History & Observations

Time (PDT) Temp. Dew Point Humidity Pressure Visibility Wind Dir Wind Speed Gust Speed Precip Events Conditions
12:53 AM 53.1 °F 39.9 °F 61% 30.25 in 10.0 mi WNW 11.5 mph - N/A   Partly Cloudy
1:53 AM 50.0 °F 39.9 °F 68% 30.26 in 10.0 mi WNW 8.1 mph - N/A   Partly Cloudy
2:53 AM 51.1 °F 39.9 °F 66% 30.27 in 10.0 mi West 8.1 mph - N/A   Clear
3:53 AM 51.1 °F 39.0 °F 63% 30.28 in 10.0 mi West 8.1 mph - N/A   Partly Cloudy
4:53 AM 52.0 °F 39.9 °F 63% 30.29 in 10.0 mi WNW 10.4 mph - N/A   Mostly Cloudy
5:53 AM 51.1 °F 39.9 °F 66% 30.30 in 10.0 mi WNW 3.5 mph - N/A   Scattered Clouds
6:53 AM 54.0 °F 41.0 °F 62% 30.32 in 10.0 mi WNW 10.4 mph - N/A   Partly Cloudy
7:53 AM 57.0 °F 42.1 °F 57% 30.33 in 10.0 mi NW 15.0 mph - N/A   Clear
8:53 AM 59.0 °F 42.1 °F 53% 30.34 in 10.0 mi WNW 16.1 mph - N/A   Clear
9:53 AM 61.0 °F 41.0 °F 48% 30.34 in 10.0 mi WNW 17.3 mph 23.0 mph N/A   Scattered Clouds
10:53 AM 63.0 °F 41.0 °F 45% 30.34 in 10.0 mi WNW 13.8 mph 23.0 mph N/A   Partly Cloudy
11:53 AM 66.0 °F 39.9 °F 38% 30.34 in 10.0 mi West 15.0 mph 25.3 mph N/A   Clear
12:53 PM 68.0 °F 42.1 °F 39% 30.32 in 10.0 mi NNW 19.6 mph 25.3 mph N/A   Clear
1:53 PM 68.0 °F 42.1 °F 39% 30.30 in 10.0 mi NW 18.4 mph 28.8 mph N/A   Clear
2:53 PM 68.0 °F 42.1 °F 39% 30.30 in 10.0 mi NW 20.7 mph 29.9 mph N/A   Clear
3:53 PM 69.1 °F 42.1 °F 38% 30.30 in 10.0 mi NW 17.3 mph 26.5 mph N/A   Clear
4:53 PM 69.1 °F 41.0 °F 36% 30.29 in 10.0 mi NW 18.4 mph - N/A   Clear
5:53 PM 69.1 °F 42.1 °F 38% 30.29 in 10.0 mi NW 18.4 mph 23.0 mph N/A   Clear
6:53 PM 68.0 °F 42.1 °F 39% 30.29 in 10.0 mi NW 10.4 mph 17.3 mph N/A   Clear
7:53 PM 66.9 °F 43.0 °F 42% 30.30 in 10.0 mi WNW 13.8 mph - N/A   Clear
8:53 PM 63.0 °F 44.1 °F 50% 30.31 in 10.0 mi Calm Calm - N/A   Clear
9:53 PM 60.1 °F 44.1 °F 55% 30.32 in 10.0 mi Calm Calm - N/A   Clear
10:53 PM 59.0 °F 44.1 °F 58% 30.34 in 10.0 mi NNW 6.9 mph - N/A   Clear
11:53 PM 55.0 °F 43.0 °F 64% 30.34 in 10.0 mi WNW 8.1 mph - N/A   Clear